Weather History for Manchester, NH

Change the Weather History Date:

Friday, June 6, 2014

  Actual Average Record
Temperature  
Mean Temperature 65 °F -  
Max Temperature 75 °F 73 °F 89 °F (1953)
Min Temperature 55 °F 49 °F 33 °F (1964)
Growing Degree Days 15 (Base 50)    
Moisture  
Dew Point 52 °F    
Average Humidity 65    
Maximum Humidity 97    
Minimum Humidity 38    
Precipitation  
Precipitation 0.03 in - - ()
Sea Level Pressure  
Sea Level Pressure 29.79 in    
Wind  
Wind Speed 8 mph (NW)    
Max Wind Speed 17 mph    
Max Gust Speed 23 mph    
Visibility 10 miles    
Events Rain    
Averages and records for this station are not official NWS values.
T = Trace of Precipitation, MM = Missing Value Source: NWS Daily Summary

Daily Weather History Graph

Daily Weather History Graph

Search for Another Location

Airport:

Trip Planner

Search our weather history database for the weather conditions in past years. The results will help you decide how hot, cold, wet, or windy it might be!

Date:

Astronomy

Jun. 06, 2014 Rise Set
Actual Time 5:07 AM EDT 8:21 PM EDT
Civil Twilight 4:32 AM EDT 8:56 PM EDT
Nautical Twilight 3:47 AM EDT 9:41 PM EDT
Astronomical Twilight 2:53 AM EDT 10:36 PM EDT
Moon 1:28 PM EDT (6/6) 1:07 AM EDT (6/6)
Length of Visible Light 16h 23m
Length of Day
15h 14m
First Quarter, 58% of the Moon is Illuminated
Jun 6
First Quarter
Jun 13
Full
Jun 19
Last Quarter
Jun 27
New
Jul 5
First Quarter

Hourly Weather History & Observations

Time (EDT) Temp. Dew Point Humidity Pressure Visibility Wind Dir Wind Speed Gust Speed Precip Events Conditions
12:53 AM 57.9 °F 55.0 °F 90% 29.73 in 10.0 mi North 4.6 mph - N/A   Mostly Cloudy
1:53 AM 55.9 °F 55.0 °F 97% 29.72 in 10.0 mi South 3.5 mph - 0.00 in Rain Light Rain
2:53 AM 55.9 °F 55.0 °F 97% 29.72 in 6.0 mi Calm Calm - 0.02 in Rain Light Rain
3:53 AM 59.0 °F 55.9 °F 90% 29.72 in 10.0 mi NNW 8.1 mph - 0.01 in   Overcast
4:53 AM 57.9 °F 55.0 °F 90% 29.74 in 10.0 mi NW 8.1 mph - N/A   Mostly Cloudy
5:53 AM 57.9 °F 54.0 °F 87% 29.75 in 10.0 mi Variable 6.9 mph - N/A   Mostly Cloudy
6:53 AM 57.9 °F 54.0 °F 87% 29.77 in 10.0 mi NW 6.9 mph - 0.00 in Rain Light Rain
7:53 AM 59.0 °F 53.1 °F 81% 29.79 in 10.0 mi NNW 8.1 mph - 0.00 in   Mostly Cloudy
8:53 AM 63.0 °F 53.1 °F 70% 29.80 in 10.0 mi WNW 10.4 mph 19.6 mph 0.00 in   Mostly Cloudy
9:53 AM 64.9 °F 53.1 °F 65% 29.80 in 10.0 mi NW 8.1 mph 17.3 mph N/A   Overcast
10:53 AM 68.0 °F 51.8 °F 56% 29.76 in 10.0 mi NNW 12.7 mph 23.0 mph N/A   Mostly Cloudy
11:53 AM 71.1 °F 50.0 °F 47% 29.79 in 10.0 mi WNW 13.8 mph 20.7 mph N/A   Scattered Clouds
12:53 PM 73.0 °F 48.9 °F 42% 29.79 in 10.0 mi NNW 13.8 mph 19.6 mph N/A   Mostly Cloudy
1:53 PM 73.9 °F 48.9 °F 41% 29.79 in 10.0 mi NNW 13.8 mph 21.9 mph N/A   Mostly Cloudy
2:53 PM 73.9 °F 50.0 °F 43% 29.79 in 10.0 mi NNW 12.7 mph 21.9 mph N/A   Mostly Cloudy
3:53 PM 72.0 °F 50.0 °F 46% 29.80 in 10.0 mi WNW 12.7 mph - N/A   Mostly Cloudy
4:53 PM 75.2 °F 48.2 °F 38% 29.76 in 10.0 mi WNW 12.7 mph 21.9 mph N/A   Mostly Cloudy
5:53 PM 73.9 °F 48.9 °F 41% 29.81 in 10.0 mi NNW 17.3 mph 21.9 mph N/A   Mostly Cloudy
6:53 PM 71.1 °F 51.1 °F 49% 29.83 in 10.0 mi NW 9.2 mph - N/A   Scattered Clouds
7:53 PM 71.1 °F 50.0 °F 47% 29.85 in 10.0 mi WNW 9.2 mph - N/A   Partly Cloudy
8:53 PM 68.0 °F 50.0 °F 52% 29.87 in 10.0 mi NW 4.6 mph - N/A   Partly Cloudy
9:53 PM 66.0 °F 51.1 °F 59% 29.89 in 10.0 mi NW 5.8 mph - N/A   Clear
10:53 PM 63.0 °F 52.0 °F 67% 29.89 in 10.0 mi North 4.6 mph - N/A   Clear
11:53 PM 63.0 °F 52.0 °F 67% 29.90 in 10.0 mi NNW 5.8 mph - N/A   Clear